Flag for Germany Weather past 2 weeks in Alsfeld, Hesse, Germany

Now
51 °F

Light rain. Overcast.


Feels Like: 48 °F
Forecast: 39 / 44 °F
Wind: 8 mph from Southwest

Location: Fritzlar

Current Time: Mar 29, 2015 at 1:19:06 PM

Latest Report: Mar 29, 2015 at 12:00 PM


Visibility: 16 mi

Pressure: 29.63 "Hg

Humidity: 73%

Dew point: 42 °F

Location of AlsfeldLocation

Historic Weather in Alsfeld — Graph

°F

Alsfeld temperature yesterday

Maximum temperature yesterday: 54 °F (at 3:00 PM)
Minimum temperature yesterday: 29 °F (at 7:00 AM)
Average temperature yesterday: 44 °F

Past Weeks' High & Low Weather Summary

 TemperatureHumidityPressure
High64 °F (Mar 25, 4:00 PM)98% (Mar 20, 8:00 AM)30.37 "Hg (Mar 20, 8:00 AM)
Low26 °F (Mar 23, 6:00 AM)40% (Mar 25, 3:00 PM)29.59 "Hg (Mar 25, 4:00 PM)
Average42 °F78%30.10 "Hg
* Reported Mar 14 11:00 AM — Mar 29 12:00 Noon, Alsfeld, Weather by CustomWeather, © 2015

Note: Actual official high and low records may vary slightly from our data, if they occured in-between our weather recording intervals... More about our weather records

Advertising

Alsfeld weather history for previous 24 hours

 ConditionsComfort  
Time TempWeatherWind HumidityBarometerVisibility
12:00 PM
Sun, Mar 29
51 °FLight rain. Overcast.8 mph73%29.63 "Hg16 mi
11:00 AM51 °FLight rain. Overcast.9 mph69%29.65 "Hg16 mi
10:00 AM51 °FOvercast.6 mph73%29.67 "Hg16 mi
9:00 AM50 °FOvercast.7 mph77%29.70 "Hg16 mi
8:00 AM50 °FOvercast.7 mph76%29.70 "Hg13 mi
7:00 AM50 °FLight rain. Overcast.5 mph89%29.71 "Hg6 mi
6:00 AM50 °FRain. Low clouds.6 mph89%29.71 "Hg5 mi
5:00 AM49 °FRain. Low clouds.7 mph91%29.72 "Hg6 mi
4:00 AM48 °FRain. Low clouds.7 mph92%29.73 "Hg4 mi
3:00 AM47 °FDrizzle. Low clouds.8 mph93%29.78 "Hg4 mi
1:00 AM46 °FRain. Low clouds.7 mph92%29.81 "Hg5 mi
12:00 AM47 °FRain. Low clouds.5 mph87%29.85 "Hg6 mi
11:00 PM
Sat, Mar 28
47 °FOvercast.5 mph87%29.86 "Hg9 mi
9:00 PM47 °FLight rain. Overcast.8 mph82%29.93 "Hg9 mi
8:00 PM48 °FOvercast.6 mph72%29.94 "Hg11 mi
7:00 PM48 °FOvercast.5 mph69%29.94 "Hg13 mi
6:00 PM49 °FOvercast.6 mph68%29.96 "Hg13 mi
5:00 PM50 °FLight rain. Overcast.6 mph61%29.97 "Hg11 mi
4:00 PM53 °FLight rain. Overcast.7 mph46%29.98 "Hg16 mi
3:00 PM54 °FOvercast.7 mph42%29.99 "Hg16 mi
2:00 PM53 °FScattered clouds.8 mph45%30.02 "Hg16 mi
1:00 PM53 °FScattered clouds.7 mph46%30.06 "Hg16 mi
Weather by CustomWeather, © 2015

See weather overviewHow to use our weather pages